User: anonymous   Login
Location: ??
(35.4032°N, 139.3073°E)
Time: 01:11:09
(UTC+00:00)
Language:

Thor Agena Rocket - Orbit

View from above orbital plane
View from above orbital plane
View from above satellite
View from above satellite

Ground track
Ground track

The orbit data is extracted from the following two-line orbital elements,

1 00733U 64002A   24174.49861741  .00000313  00000-0  13092-3 0  9998
2 00733  99.0743 144.2243 0032218 279.1030  80.6507 14.33233192148713
Epoch (UTC): 22 June 2024 11:58:00
Eccentricity: 0.0032218
inclination: 99.0743°
perigee height: 758 km
apogee height: 804 km
right ascension of ascending node: 144.2243°
argument of perigee: 279.1030°
revolutions per day: 14.33233192
mean anomaly at epoch: 80.6507°
orbit number at epoch: 14871

The dashed part of the orbit path shows where the satellite is in the earth's shadow,  

DLR